Olympia, WA

5:08 AM PDT on August 20, 2017 (GMT -0700)
Olympia

Weather History for KOLM - May, 2014

Change the Weather History Date:

Saturday, May 17, 2014

  Actual Average Record
Temperature  
Mean Temperature 57 °F 55 °F  
Max Temperature 68 °F 66 °F 91 °F (2008)
Min Temperature 45 °F 43 °F 30 °F (2011)
Degree Days  
Heating Degree Days 8 11  
Month to date heating degree days 149 209  
Since 1 July heating degree days 4964 5068  
Cooling Degree Days 0 0  
Month to date cooling degree days 1 0  
Year to date cooling degree days 1 0  
Growing Degree Days 10 (Base 50)    
Moisture  
Dew Point 48 °F    
Average Humidity 69    
Maximum Humidity 89    
Minimum Humidity 48    
Precipitation  
Precipitation T in 0.08 in 0.54 in (1989)
Month to date precipitation 2.50 1.33  
Year to date precipitation 28.97 23.27  
Sea Level Pressure  
Sea Level Pressure 29.99 in    
Wind  
Wind Speed 7 mph (SW)    
Max Wind Speed 15 mph    
Max Gust Speed 22 mph    
Visibility 10 miles    
Events Rain    
T = Trace of Precipitation, MM = Missing Value Source: NWS Daily Summary

Daily Weather History Graph

Daily Weather History Graph

Search for Another Location

Airport or City:

Trip Planner

Search our weather history database for the weather conditions in past years. The results will help you decide how hot, cold, wet, or windy it might be!

Date:

Astronomy

May. 17, 2014 Rise Set
Actual Time 5:33 AM PDT 8:42 PM PDT
Civil Twilight 4:57 AM PDT 9:19 PM PDT
Nautical Twilight 4:10 AM PDT 10:06 PM PDT
Astronomical Twilight 3:12 AM PDT 11:05 PM PDT
Moon 11:45 PM PDT (5/17) 8:23 AM PDT (5/17)
Length of Visible Light 16h 21m
Length of Day
15h 09m
Waning Gibbous, 88% of the Moon is Illuminated
May 17
Waning Gibbous
May 21
Last Quarter
May 28
New
Jun 5
First Quarter
Jun 12
Full

Hourly Weather History & Observations

Time (PDT) Temp. Dew Point Humidity Pressure Visibility Wind Dir Wind Speed Gust Speed Precip Events Conditions
12:36 AM 55.0 °F 48.9 °F 80% 30.10 in 10.0 mi SW 6.9 mph - N/A   Overcast
12:54 AM 55.0 °F 48.9 °F 80% 30.10 in 10.0 mi SW 6.9 mph - N/A   Overcast
1:54 AM 54.0 °F 48.9 °F 83% 30.08 in 10.0 mi SSW 5.8 mph - N/A   Overcast
2:54 AM 54.0 °F 50.0 °F 86% 30.08 in 10.0 mi SSW 9.2 mph - N/A   Overcast
3:54 AM 52.0 °F 48.9 °F 89% 30.07 in 10.0 mi SSW 6.9 mph - N/A   Overcast
4:54 AM 53.1 °F 48.9 °F 86% 30.06 in 10.0 mi SW 8.1 mph - N/A   Overcast
5:54 AM 53.1 °F 48.0 °F 83% 30.05 in 4.0 mi SSW 9.2 mph - N/A   Haze
6:54 AM 53.1 °F 48.9 °F 86% 30.06 in 9.0 mi SSW 6.9 mph - N/A   Overcast
7:54 AM 54.0 °F 48.9 °F 83% 30.05 in 10.0 mi WSW 6.9 mph - N/A   Mostly Cloudy
8:54 AM 57.0 °F 48.9 °F 74% 30.04 in 10.0 mi SSW 5.8 mph - N/A   Mostly Cloudy
9:54 AM 59.0 °F 48.0 °F 67% 30.02 in 10.0 mi WSW 8.1 mph - N/A   Mostly Cloudy
10:54 AM 60.1 °F 46.9 °F 62% 30.01 in 10.0 mi SSW 8.1 mph - N/A   Overcast
11:54 AM 57.9 °F 48.9 °F 72% 30.01 in 10.0 mi West 11.5 mph - N/A   Overcast
12:54 PM 57.9 °F 52.0 °F 81% 30.00 in 6.0 mi NW 10.4 mph - 0.00 in Rain Light Rain
1:54 PM 63.0 °F 48.0 °F 58% 29.98 in 10.0 mi Calm Calm - 0.00 in   Mostly Cloudy
2:54 PM 64.9 °F 46.0 °F 50% 29.95 in 10.0 mi WSW 4.6 mph - N/A   Mostly Cloudy
3:54 PM 66.9 °F 46.0 °F 47% 29.94 in 10.0 mi SW 9.2 mph - N/A   Mostly Cloudy
4:54 PM 64.9 °F 46.9 °F 52% 29.93 in 10.0 mi WSW 16.1 mph 21.9 mph N/A   Mostly Cloudy
5:54 PM 64.9 °F 46.0 °F 50% 29.91 in 10.0 mi West 8.1 mph - N/A   Scattered Clouds
6:54 PM 64.9 °F 46.0 °F 50% 29.90 in 10.0 mi WNW 6.9 mph - N/A   Scattered Clouds
7:54 PM 62.1 °F 46.9 °F 58% 29.89 in 10.0 mi WNW 8.1 mph - N/A   Clear
8:54 PM 57.0 °F 46.0 °F 67% 29.89 in 10.0 mi WNW 3.5 mph - N/A   Clear
9:54 PM 52.0 °F 46.0 °F 80% 29.90 in 9.0 mi SE 3.5 mph - N/A   Clear
10:54 PM 51.1 °F 46.0 °F 83% 29.89 in 10.0 mi Calm Calm - N/A   Clear
11:54 PM 48.0 °F 45.0 °F 89% 29.88 in 10.0 mi South 4.6 mph - N/A   Clear